Burnet, TX

6:12 PM CST on February 27, 2017 (GMT -0600)
Burnet Municipal-Craddock

Weather History for KBMQ - January, 2012

Change the Weather History Date:

Monday, January 16, 2012

  Actual Average Record
Temperature  
Mean Temperature 64 °F -  
Max Temperature 69 °F 58 °F 75 °F (1999)
Min Temperature 60 °F 37 °F 26 °F (2007)
Growing Degree Days 14 (Base 50)    
Moisture  
Dew Point 58 °F    
Average Humidity 82    
Maximum Humidity 94    
Minimum Humidity 68    
Precipitation  
Precipitation 0.00 in - - ()
Sea Level Pressure  
Sea Level Pressure 30.03 in    
Wind  
Wind Speed 10 mph (South)    
Max Wind Speed 20 mph    
Max Gust Speed 28 mph    
Visibility 9 miles    
Events      
Averages and records for this station are not official NWS values.
T = Trace of Precipitation, MM = Missing Value Source: NWS Daily Summary

Daily Weather History Graph

Daily Weather History Graph

Search for Another Location

Airport or City:

Trip Planner

Search our weather history database for the weather conditions in past years. The results will help you decide how hot, cold, wet, or windy it might be!

Date:

Astronomy

Jan. 16, 2012 Rise Set
Actual Time 7:31 AM CST 5:54 PM CST
Civil Twilight 7:05 AM CST 6:20 PM CST
Nautical Twilight 6:35 AM CST 6:50 PM CST
Astronomical Twilight 6:06 AM CST 7:19 PM CST
Moon 12:49 AM CST (1/16) 12:03 PM CST (1/16)
Length of Visible Light 11h 15m
Length of Day
10h 23m
Last Quarter, 46% of the Moon is Illuminated
Jan 16
Last Quarter
Jan 23
New
Jan 30
First Quarter
Feb 7
Full
Feb 14
Last Quarter

Hourly Weather History & Observations

Time (CST) Temp. Dew Point Humidity Pressure Visibility Wind Dir Wind Speed Gust Speed Precip Events Conditions
12:53 AM 61.0 °F 57.0 °F 87% 30.14 in 10.0 mi South 8.1 mph - N/A   Overcast
1:53 AM 62.1 °F 57.0 °F 84% 30.13 in 10.0 mi South 8.1 mph - N/A   Overcast
2:53 AM 62.1 °F 57.0 °F 84% 30.12 in 10.0 mi South 10.4 mph - N/A   Overcast
3:53 AM 61.0 °F 57.0 °F 87% 30.09 in 10.0 mi South 10.4 mph 17.3 mph N/A   Overcast
4:53 AM 62.1 °F 57.0 °F 84% 30.09 in 10.0 mi SSW 9.2 mph - N/A   Overcast
5:53 AM 62.1 °F 57.9 °F 86% 30.08 in 10.0 mi South 10.4 mph - N/A   Overcast
6:04 AM 60.8 °F 57.2 °F 88% 30.10 in 9.0 mi South 11.5 mph - N/A   Overcast
6:11 AM 62.6 °F 57.2 °F 82% 30.10 in 9.0 mi South 10.4 mph - N/A   Overcast
6:19 AM 62.6 °F 57.2 °F 82% 30.10 in 9.0 mi South 12.7 mph - N/A   Overcast
6:53 AM 61.0 °F 57.9 °F 90% 30.08 in 10.0 mi South 10.4 mph 18.4 mph N/A   Overcast
7:53 AM 62.1 °F 57.9 °F 86% 30.09 in 10.0 mi South 9.2 mph - N/A   Overcast
8:53 AM 62.1 °F 59.0 °F 90% 30.10 in 10.0 mi South 5.8 mph - N/A   Overcast
9:53 AM 63.0 °F 59.0 °F 87% 30.10 in 9.0 mi South 12.7 mph 21.9 mph N/A   Overcast
10:53 AM 64.0 °F 59.0 °F 84% 30.09 in 10.0 mi South 18.4 mph 23.0 mph N/A   Overcast
11:53 AM 64.9 °F 59.0 °F 81% 30.06 in 10.0 mi SSW 11.5 mph 18.4 mph N/A   Overcast
12:45 PM 66.2 °F 59.0 °F 78% 30.05 in 10.0 mi South 10.4 mph 19.6 mph N/A   Overcast
12:53 PM 66.0 °F 59.0 °F 78% 30.02 in 10.0 mi South 11.5 mph 21.9 mph N/A   Overcast
1:53 PM 68.0 °F 59.0 °F 73% 29.97 in 10.0 mi South 17.3 mph 25.3 mph N/A   Mostly Cloudy
2:34 PM 69.8 °F 59.0 °F 68% 29.99 in 10.0 mi South 19.6 mph 27.6 mph N/A   Scattered Clouds
2:53 PM 68.0 °F 59.0 °F 73% 29.95 in 10.0 mi South 16.1 mph 24.2 mph N/A   Partly Cloudy
3:31 PM 68.0 °F 59.0 °F 73% 29.98 in 10.0 mi South 15.0 mph 20.7 mph N/A   Mostly Cloudy
3:53 PM 68.0 °F 59.0 °F 73% 29.95 in 10.0 mi South 10.4 mph - N/A   Overcast
4:41 PM 69.8 °F 59.0 °F 68% 29.98 in 10.0 mi South 10.4 mph - N/A   Scattered Clouds
4:53 PM 69.1 °F 59.0 °F 70% 29.94 in 10.0 mi South 10.4 mph - N/A   Scattered Clouds
5:53 PM 66.9 °F 59.0 °F 76% 29.95 in 10.0 mi SSW 4.6 mph - N/A   Partly Cloudy
6:53 PM 63.0 °F 57.9 °F 84% 29.96 in 9.0 mi South 3.5 mph - N/A   Clear
8:53 PM 60.1 °F 57.0 °F 90% 29.97 in 7.0 mi Calm Calm - N/A   Clear
9:53 PM 64.0 °F 59.0 °F 84% 29.97 in 10.0 mi SSE 6.9 mph - N/A   Clear
10:53 PM 64.0 °F 61.0 °F 90% 29.96 in 8.0 mi South 9.2 mph - N/A   Clear
11:49 PM 62.6 °F 60.8 °F 94% 29.98 in 6.0 mi South 6.9 mph - N/A   Partly Cloudy
11:53 PM 63.0 °F 61.0 °F 93% 29.96 in 6.0 mi South 6.9 mph - N/A   Scattered Clouds